| time (UTC) | temp C | wind direction | speed KPH | gust KPH | rain 1hr cm | rain 24hr cm | rain mn cm | humidity % | barometer mb |
| 20260510081505 | 20 | 132 | 0.0 | 4.8 | 0.00 | 0.05 | 0.00 | 68 | 1009.7 |
| 20260510081004 | 19 | 132 | 0.0 | 4.8 | 0.00 | 0.05 | 0.00 | 68 | 1009.8 |
| 20260510080509 | 18 | 132 | 0.0 | 3.2 | 0.00 | 0.05 | 0.00 | 71 | 1009.7 |
| 20260510080007 | 18 | 132 | 0.0 | 3.2 | 0.00 | 0.05 | 0.00 | 69 | 1009.7 |
| 20260510075503 | 18 | 132 | 0.0 | 3.2 | 0.00 | 0.05 | 0.00 | 75 | 1009.7 |
| 20260510075007 | 18 | 132 | 0.0 | 1.6 | 0.00 | 0.05 | 0.00 | 75 | 1009.7 |
| 20260510074505 | 17 | 132 | 0.0 | 1.6 | 0.00 | 0.05 | 0.00 | 76 | 1009.8 |
| 20260510074002 | 17 | 132 | 0.0 | 0.0 | 0.00 | 0.05 | 0.00 | 74 | 1009.8 |
| 20260510073505 | 16 | 132 | 0.0 | 4.8 | 0.00 | 0.05 | 0.00 | 78 | 1009.7 |
| 20260510073012 | 16 | 132 | 0.0 | 4.8 | 0.00 | 0.05 | 0.00 | 77 | 1009.7 |
| 20260510072507 | 16 | 132 | 0.0 | 1.6 | 0.00 | 0.05 | 0.00 | 79 | 1009.7 |
| 20260510072004 | 16 | 132 | 0.0 | 1.6 | 0.00 | 0.05 | 0.00 | 79 | 1009.6 |
| 20260510071510 | 15 | 132 | 0.0 | 1.6 | 0.00 | 0.05 | 0.00 | 80 | 1009.5 |
| 20260510071006 | 15 | 132 | 0.0 | 1.6 | 0.00 | 0.05 | 0.00 | 81 | 1009.4 |
| 20260510070502 | 15 | 132 | 0.0 | 1.6 | 0.00 | 0.05 | 0.00 | 83 | 1009.4 |
| 20260510070008 | 15 | 132 | 0.0 | 1.6 | 0.00 | 0.05 | 0.00 | 82 | 1009.3 |
| 20260510065507 | 14 | 132 | 0.0 | 4.8 | 0.00 | 0.05 | 0.00 | 84 | 1009.3 |
| 20260510065008 | 14 | 132 | 1.6 | 4.8 | 0.00 | 0.05 | 0.00 | 83 | 1009.2 |
| 20260510064507 | 13 | 132 | 0.0 | 4.8 | 0.00 | 0.05 | 0.00 | 84 | 1009.1 |
| 20260510064003 | 13 | 132 | 0.0 | 4.8 | 0.00 | 0.05 | 0.00 | 84 | 1009.1 |
| 20260510063505 | 13 | 132 | 0.0 | 4.8 | 0.00 | 0.05 | 0.00 | 85 | 1009.0 |
| 20260510063007 | 13 | 132 | 0.0 | 6.4 | 0.00 | 0.05 | 0.00 | 87 | 1009.1 |
| 20260510062502 | 12 | 132 | 0.0 | 6.4 | 0.00 | 0.05 | 0.00 | 86 | 1009.1 |
| 20260510062007 | 12 | 127 | 0.0 | 4.8 | 0.00 | 0.05 | 0.00 | 86 | 1009.0 |
| 20260510061510 | 12 | 127 | 0.0 | 4.8 | 0.00 | 0.05 | 0.00 | 88 | 1009.0 |
| 20260510061003 | 12 | 127 | 0.0 | 4.8 | 0.00 | 0.05 | 0.00 | 90 | 1008.9 |
| 20260510060507 | 12 | 144 | 0.0 | 1.6 | 0.00 | 0.05 | 0.00 | 92 | 1009.1 |
| 20260510060030 | 11 | 144 | 0.0 | 1.6 | 0.00 | 0.05 | 0.00 | 93 | 1009.1 |
| 20260510055506 | 11 | 144 | 0.0 | 3.2 | 0.00 | 0.05 | 0.00 | 93 | 1009.1 |
| 20260510055003 | 11 | 144 | 0.0 | 3.2 | 0.00 | 0.05 | 0.00 | 93 | 1009.1 |
| 20260510054517 | 11 | 144 | 0.0 | 0.0 | 0.00 | 0.05 | 0.00 | 95 | 1009.0 |
| 20260510054009 | 11 | 144 | 0.0 | 1.6 | 0.00 | 0.05 | 0.00 | 96 | 1009.0 |
| 20260510053504 | 10 | 144 | 0.0 | 1.6 | 0.00 | 0.05 | 0.00 | 96 | 1009.0 |
| 20260510053011 | 10 | 144 | 0.0 | 1.6 | 0.00 | 0.05 | 0.00 | 96 | 1009.0 |
| 20260510052509 | 10 | 144 | 0.0 | 1.6 | 0.00 | 0.05 | 0.00 | 95 | 1009.1 |
| 20260510052004 | 10 | 144 | 0.0 | 0.0 | 0.00 | 0.05 | 0.00 | 95 | 1009.1 |
| 20260510051508 | 10 | 144 | 0.0 | 0.0 | 0.00 | 0.05 | 0.00 | 95 | 1009.0 |
| 20260510051003 | 10 | 144 | 0.0 | 0.0 | 0.00 | 0.05 | 0.00 | 95 | 1009.0 |
| 20260510050505 | 10 | 144 | 0.0 | 0.0 | 0.00 | 0.05 | 0.00 | 95 | 1008.9 |
| 20260510050007 | 10 | 144 | 0.0 | 0.0 | 0.00 | 0.05 | 0.00 | 95 | 1008.8 |
| 20260510045506 | 10 | 144 | 0.0 | 0.0 | 0.00 | 0.05 | 0.00 | 95 | 1008.8 |
| 20260510045007 | 10 | 144 | 0.0 | 0.0 | 0.00 | 0.05 | 0.00 | 95 | 1008.8 |
| 20260510044518 | 10 | 144 | 0.0 | 1.6 | 0.00 | 0.05 | 0.00 | 95 | 1008.9 |
| 20260510044003 | 10 | 144 | 0.0 | 1.6 | 0.00 | 0.05 | 0.00 | 95 | 1008.9 |
| 20260510043506 | 10 | 144 | 0.0 | 1.6 | 0.00 | 0.05 | 0.00 | 95 | 1008.8 |
| 20260510043027 | 10 | 144 | 0.0 | 1.6 | 0.00 | 0.05 | 0.00 | 94 | 1008.9 |
| 20260510042512 | 10 | 144 | 0.0 | 0.0 | 0.00 | 0.05 | 0.00 | 94 | 1008.9 |
| 20260510042011 | 11 | 144 | 0.0 | 0.0 | 0.00 | 0.05 | 0.00 | 95 | 1008.9 |
| 20260510041521 | 11 | 144 | 0.0 | 1.6 | 0.00 | 0.05 | 0.00 | 95 | 1008.9 |
| 20260510041007 | 11 | 144 | 0.0 | 4.8 | 0.00 | 0.05 | 0.00 | 95 | 1008.8 |
| 20260510040504 | 11 | 144 | 0.0 | 4.8 | 0.00 | 0.05 | 0.00 | 95 | 1008.8 |
| 20260510040009 | 11 | 142 | 1.6 | 4.8 | 0.00 | 0.05 | 0.00 | 95 | 1008.9 |
| 20260510035504 | 11 | 142 | 0.0 | 3.2 | 0.00 | 0.05 | 0.00 | 95 | 1008.9 |
| 20260510035011 | 11 | 142 | 0.0 | 3.2 | 0.00 | 0.05 | 0.00 | 95 | 1008.9 |
| 20260510034520 | 11 | 142 | 0.0 | 1.6 | 0.00 | 0.05 | 0.00 | 95 | 1009.1 |
| 20260510034009 | 11 | 142 | 0.0 | 3.2 | 0.00 | 0.05 | 0.00 | 95 | 1009.0 |
| 20260510033510 | 11 | 142 | 0.0 | 3.2 | 0.00 | 0.05 | 0.00 | 95 | 1009.1 |
| 20260510033008 | 11 | 142 | 0.0 | 1.6 | 0.00 | 0.05 | 0.00 | 95 | 1009.1 |
| 20260510032508 | 11 | 142 | 0.0 | 1.6 | 0.00 | 0.05 | 0.00 | 95 | 1009.2 |
| 20260510032008 | 11 | 142 | 0.0 | 1.6 | 0.00 | 0.05 | 0.00 | 95 | 1009.2 |
| 20260510031524 | 11 | 142 | 0.0 | 3.2 | 0.00 | 0.05 | 0.00 | 95 | 1009.3 |
| 20260510031003 | 11 | 142 | 0.0 | 3.2 | 0.00 | 0.05 | 0.00 | 95 | 1009.2 |
| 20260510030512 | 11 | 142 | 0.0 | 3.2 | 0.00 | 0.05 | 0.00 | 94 | 1009.2 |
| 20260510030025 | 11 | 142 | 0.0 | 3.2 | 0.00 | 0.05 | 0.00 | 94 | 1009.2 |
| 20260510025513 | 11 | 142 | 0.0 | 3.2 | 0.00 | 0.05 | 0.00 | 95 | 1009.2 |
| 20260510025004 | 11 | 142 | 0.0 | 3.2 | 0.00 | 0.05 | 0.00 | 95 | 1009.4 |
| 20260510024510 | 11 | 142 | 0.0 | 3.2 | 0.00 | 0.05 | 0.00 | 95 | 1009.4 |
| 20260510024006 | 11 | 142 | 0.0 | 1.6 | 0.00 | 0.05 | 0.00 | 95 | 1009.4 |
| 20260510023503 | 11 | 142 | 0.0 | 1.6 | 0.00 | 0.05 | 0.00 | 94 | 1009.5 |
| 20260510023016 | 11 | 142 | 0.0 | 3.2 | 0.00 | 0.05 | 0.00 | 95 | 1009.5 |
| 20260510022507 | 11 | 142 | 0.0 | 3.2 | 0.00 | 0.05 | 0.00 | 95 | 1009.5 |
| 20260510022011 | 12 | 142 | 0.0 | 3.2 | 0.00 | 0.05 | 0.00 | 95 | 1009.5 |
| 20260510021517 | 12 | 142 | 0.0 | 3.2 | 0.00 | 0.05 | 0.00 | 95 | 1009.4 |
| 20260510021007 | 12 | 142 | 0.0 | 3.2 | 0.00 | 0.05 | 0.00 | 95 | 1009.5 |
| 20260510020513 | 12 | 142 | 0.0 | 3.2 | 0.00 | 0.05 | 0.00 | 95 | 1009.5 |
| 20260510020025 | 12 | 142 | 0.0 | 3.2 | 0.00 | 0.05 | 0.00 | 95 | 1009.5 |
| 20260510015508 | 12 | 142 | 0.0 | 3.2 | 0.00 | 0.05 | 0.00 | 95 | 1009.5 |
| 20260510015011 | 12 | 142 | 0.0 | 4.8 | 0.00 | 0.05 | 0.00 | 95 | 1009.5 |
| 20260510014526 | 12 | 142 | 0.0 | 4.8 | 0.00 | 0.05 | 0.00 | 95 | 1009.4 |
| 20260510014004 | 12 | 142 | 0.0 | 3.2 | 0.00 | 0.05 | 0.00 | 95 | 1009.5 |
| 20260510013508 | 12 | 142 | 0.0 | 3.2 | 0.00 | 0.05 | 0.00 | 95 | 1009.4 |
| 20260510013012 | 12 | 142 | 0.0 | 4.8 | 0.00 | 0.05 | 0.00 | 95 | 1009.4 |
| 20260510012506 | 12 | 142 | 1.6 | 4.8 | 0.00 | 0.05 | 0.00 | 95 | 1009.5 |
| 20260510012007 | 12 | 143 | 0.0 | 4.8 | 0.00 | 0.05 | 0.00 | 95 | 1009.5 |
| 20260510011524 | 12 | 143 | 0.0 | 3.2 | 0.00 | 0.05 | 0.00 | 95 | 1009.5 |
| 20260510011006 | 12 | 143 | 0.0 | 1.6 | 0.00 | 0.05 | 0.00 | 95 | 1009.5 |
| 20260510010504 | 12 | 143 | 0.0 | 1.6 | 0.00 | 0.05 | 0.00 | 95 | 1009.6 |
| 20260510010023 | 12 | 143 | 0.0 | 3.2 | 0.00 | 0.05 | 0.00 | 95 | 1009.6 |
| 20260510005508 | 12 | 143 | 0.0 | 3.2 | 0.00 | 0.05 | 0.00 | 95 | 1009.6 |
| 20260510005009 | 12 | 143 | 0.0 | 3.2 | 0.00 | 0.05 | 0.00 | 95 | 1009.6 |
| 20260510004507 | 12 | 143 | 0.0 | 3.2 | 0.00 | 0.05 | 0.00 | 95 | 1009.6 |
| 20260510004004 | 12 | 143 | 0.0 | 3.2 | 0.00 | 0.05 | 0.00 | 95 | 1009.5 |
| 20260510003505 | 12 | 143 | 0.0 | 0.0 | 0.00 | 0.05 | 0.00 | 94 | 1009.7 |
| 20260510003022 | 12 | 143 | 0.0 | 1.6 | 0.00 | 0.05 | 0.00 | 95 | 1009.7 |
| 20260510002502 | 12 | 143 | 0.0 | 1.6 | 0.00 | 0.05 | 0.00 | 94 | 1009.6 |
| 20260510002006 | 12 | 143 | 0.0 | 0.0 | 0.00 | 0.05 | 0.00 | 94 | 1009.6 |
| 20260510001513 | 12 | 143 | 0.0 | 0.0 | 0.00 | 0.05 | 0.00 | 94 | 1009.6 |
| 20260510001007 | 12 | 143 | 0.0 | 0.0 | 0.00 | 0.05 | 0.00 | 94 | 1009.5 |
| 20260510000504 | 12 | 143 | 0.0 | 0.0 | 0.00 | 0.05 | 0.00 | 94 | 1009.6 |
| 20260510000004 | 12 | 143 | 0.0 | 0.0 | 0.00 | 0.05 | 0.00 | 94 | 1009.6 |
| 20260509235506 | 12 | 143 | 0.0 | 1.6 | 0.00 | 0.05 | 0.00 | 94 | 1009.5 |
| 20260509235003 | 12 | 143 | 0.0 | 1.6 | 0.00 | 0.05 | 0.00 | 94 | 1009.6 |
| 20260509234503 | 12 | 143 | 0.0 | 1.6 | 0.00 | 0.05 | 0.00 | 94 | 1009.7 |
| 20260509234004 | 12 | 143 | 0.0 | 0.0 | 0.00 | 0.05 | 0.00 | 94 | 1009.7 |
| 20260509233504 | 12 | 143 | 0.0 | 0.0 | 0.00 | 0.05 | 0.00 | 93 | 1009.7 |
| 20260509233005 | 12 | 143 | 0.0 | 3.2 | 0.00 | 0.05 | 0.00 | 93 | 1009.8 |
| 20260509232505 | 12 | 143 | 0.0 | 3.2 | 0.00 | 0.05 | 0.00 | 94 | 1009.9 |
| 20260509232010 | 12 | 143 | 0.0 | 0.0 | 0.00 | 0.05 | 0.00 | 93 | 1009.8 |
| 20260509231515 | 12 | 143 | 0.0 | 3.2 | 0.00 | 0.05 | 0.00 | 93 | 1009.9 |
| 20260509231004 | 12 | 143 | 0.0 | 3.2 | 0.00 | 0.05 | 0.00 | 94 | 1009.9 |
| 20260509230505 | 12 | 143 | 0.0 | 3.2 | 0.00 | 0.05 | 0.00 | 94 | 1010.1 |
| 20260509230017 | 12 | 143 | 0.0 | 3.2 | 0.00 | 0.05 | 0.00 | 93 | 1010.3 |
| 20260509225505 | 12 | 143 | 0.0 | 3.2 | 0.00 | 0.05 | 0.00 | 93 | 1010.3 |
| 20260509225003 | 12 | 143 | 0.0 | 1.6 | 0.00 | 0.05 | 0.00 | 93 | 1010.3 |
| 20260509224504 | 12 | 143 | 0.0 | 1.6 | 0.00 | 0.05 | 0.00 | 92 | 1010.4 |
| 20260509224003 | 13 | 143 | 0.0 | 0.0 | 0.00 | 0.05 | 0.00 | 92 | 1010.4 |
| 20260509223506 | 13 | 143 | 0.0 | 1.6 | 0.00 | 0.05 | 0.00 | 92 | 1010.5 |
| 20260509223007 | 13 | 143 | 0.0 | 3.2 | 0.00 | 0.05 | 0.00 | 92 | 1010.6 |
| 20260509222503 | 13 | 143 | 0.0 | 3.2 | 0.00 | 0.05 | 0.00 | 92 | 1010.6 |
| 20260509222003 | 13 | 143 | 0.0 | 0.0 | 0.00 | 0.05 | 0.00 | 92 | 1010.7 |
| 20260509221511 | 13 | 143 | 0.0 | 3.2 | 0.00 | 0.05 | 0.00 | 92 | 1010.8 |
| 20260509221007 | 13 | 143 | 0.0 | 3.2 | 0.00 | 0.05 | 0.00 | 92 | 1010.7 |
| 20260509220507 | 13 | 143 | 0.0 | 1.6 | 0.00 | 0.05 | 0.00 | 92 | 1010.8 |
| 20260509220021 | 13 | 143 | 0.0 | 3.2 | 0.00 | 0.05 | 0.00 | 92 | 1011.0 |
| 20260509215509 | 13 | 143 | 0.0 | 4.8 | 0.00 | 0.05 | 0.05 | 92 | 1011.0 |
| 20260509215008 | 13 | 143 | 0.0 | 4.8 | 0.03 | 0.05 | 0.05 | 92 | 1011.2 |
| 20260509214521 | 13 | 143 | 0.0 | 4.8 | 0.05 | 0.05 | 0.05 | 92 | 1011.2 |
| 20260509214007 | 13 | 143 | 0.0 | 4.8 | 0.05 | 0.05 | 0.05 | 92 | 1011.3 |
| 20260509213506 | 13 | 143 | 0.0 | 1.6 | 0.05 | 0.05 | 0.05 | 92 | 1011.3 |
| 20260509213004 | 13 | 143 | 0.0 | 4.8 | 0.05 | 0.05 | 0.05 | 92 | 1011.3 |
| 20260509212503 | 14 | 143 | 0.0 | 4.8 | 0.05 | 0.05 | 0.05 | 91 | 1011.4 |
| 20260509212007 | 14 | 142 | 0.0 | 6.4 | 0.05 | 0.05 | 0.05 | 91 | 1011.5 |
| 20260509211519 | 14 | 142 | 0.0 | 6.4 | 0.05 | 0.05 | 0.05 | 91 | 1011.5 |
| 20260509211005 | 14 | 142 | 1.6 | 6.4 | 0.05 | 0.05 | 0.05 | 91 | 1011.5 |
| 20260509210505 | 14 | 138 | 0.0 | 3.2 | 0.05 | 0.05 | 0.05 | 90 | 1011.6 |
| 20260509210015 | 14 | 140 | 0.0 | 3.2 | 0.03 | 0.03 | 0.03 | 90 | 1011.6 |
| 20260509205508 | 14 | 231 | 0.0 | 3.2 | 0.03 | 0.03 | 0.03 | 89 | 1011.6 |
| 20260509205003 | 14 | 231 | 0.0 | 1.6 | 0.00 | 0.00 | 0.00 | 88 | 1011.4 |
| 20260509204521 | 14 | 231 | 0.0 | 1.6 | 0.00 | 0.00 | 0.00 | 88 | 1011.3 |
| 20260509204007 | 14 | 231 | 0.0 | 6.4 | 0.00 | 0.00 | 0.00 | 88 | 1011.5 |
| 20260509203506 | 14 | 231 | 0.0 | 11.3 | 0.00 | 0.00 | 0.00 | 87 | 1011.5 |
| 20260509203011 | 14 | 38 | 0.0 | 11.3 | 0.00 | 0.00 | 0.00 | 86 | 1011.4 |
| 20260509202508 | 15 | 345 | 0.0 | 12.9 | 0.00 | 0.00 | 0.00 | 86 | 1011.1 |
| 20260509202010 | 15 | 360 | 3.2 | 14.5 | 0.00 | 0.00 | 0.00 | 85 | 1011.0 |
| 20260509201519 | 15 | 321 | 6.4 | 17.7 | 0.00 | 0.00 | 0.00 | 85 | 1011.0 |
| 20260509201008 | 15 | 314 | 3.2 | 17.7 | 0.00 | 0.00 | 0.00 | 86 | 1011.1 |
| 20260509200506 | 15 | 265 | 4.8 | 17.7 | 0.00 | 0.00 | 0.00 | 84 | 1011.0 |
| 20260509200012 | 16 | 266 | 3.2 | 12.9 | 0.00 | 0.00 | 0.00 | 84 | 1011.0 |
| 20260509195506 | 16 | 298 | 3.2 | 14.5 | 0.00 | 0.00 | 0.00 | 82 | 1010.9 |
| 20260509195007 | 16 | 306 | 6.4 | 14.5 | 0.00 | 0.00 | 0.00 | 80 | 1010.8 |
| 20260509194518 | 16 | 276 | 4.8 | 14.5 | 0.00 | 0.00 | 0.00 | 79 | 1010.8 |
| 20260509194012 | 17 | 296 | 3.2 | 12.9 | 0.00 | 0.00 | 0.00 | 77 | 1010.6 |
| 20260509193507 | 17 | 305 | 3.2 | 17.7 | 0.00 | 0.00 | 0.00 | 76 | 1010.3 |
| 20260509193019 | 17 | 267 | 8.0 | 17.7 | 0.00 | 0.00 | 0.00 | 75 | 1010.2 |
| 20260509192507 | 17 | 321 | 1.6 | 16.1 | 0.00 | 0.00 | 0.00 | 77 | 1010.0 |
| 20260509192008 | 17 | 307 | 1.6 | 16.1 | 0.00 | 0.00 | 0.00 | 75 | 1009.9 |
| 20260509191524 | 18 | 248 | 3.2 | 12.9 | 0.00 | 0.00 | 0.00 | 76 | 1009.9 |
| 20260509191008 | 18 | 295 | 1.6 | 6.4 | 0.00 | 0.00 | 0.00 | 75 | 1009.7 |
| 20260509190505 | 18 | 19 | 0.0 | 6.4 | 0.00 | 0.00 | 0.00 | 75 | 1009.6 |
| 20260509190026 | 18 | 69 | 0.0 | 6.4 | 0.00 | 0.00 | 0.00 | 74 | 1009.4 |
| 20260509185505 | 18 | 39 | 1.6 | 6.4 | 0.00 | 0.00 | 0.00 | 74 | 1009.2 |
| 20260509185005 | 18 | 44 | 0.0 | 6.4 | 0.00 | 0.00 | 0.00 | 74 | 1009.1 |
| 20260509184509 | 18 | 41 | 1.6 | 8.0 | 0.00 | 0.00 | 0.00 | 74 | 1009.0 |
| 20260509184008 | 18 | 38 | 0.0 | 9.7 | 0.00 | 0.00 | 0.00 | 74 | 1008.9 |
| 20260509183506 | 18 | 26 | 0.0 | 9.7 | 0.00 | 0.00 | 0.00 | 73 | 1008.8 |
| 20260509183020 | 19 | 45 | 1.6 | 8.0 | 0.00 | 0.00 | 0.00 | 73 | 1008.6 |
| 20260509182506 | 19 | 44 | 1.6 | 8.0 | 0.00 | 0.00 | 0.00 | 72 | 1008.4 |
| 20260509182009 | 19 | 355 | 0.0 | 12.9 | 0.00 | 0.00 | 0.00 | 71 | 1008.3 |
| 20260509181523 | 19 | 40 | 4.8 | 12.9 | 0.00 | 0.00 | 0.00 | 70 | 1008.2 |
| 20260509181010 | 20 | 54 | 1.6 | 8.0 | 0.00 | 0.00 | 0.00 | 70 | 1008.2 |
| 20260509180505 | 20 | 67 | 1.6 | 12.9 | 0.00 | 0.00 | 0.00 | 70 | 1008.1 |
| 20260509180024 | 20 | 48 | 3.2 | 12.9 | 0.00 | 0.00 | 0.00 | 68 | 1008.1 |
| 20260509175509 | 20 | 54 | 0.0 | 11.3 | 0.00 | 0.00 | 0.00 | 66 | 1008.1 |
| 20260509175006 | 20 | 84 | 3.2 | 11.3 | 0.00 | 0.00 | 0.00 | 65 | 1008.0 |
| 20260509174522 | 20 | 97 | 1.6 | 11.3 | 0.00 | 0.00 | 0.00 | 64 | 1007.9 |
| 20260509174005 | 20 | 113 | 3.2 | 11.3 | 0.00 | 0.00 | 0.00 | 64 | 1007.8 |
| 20260509173505 | 20 | 67 | 3.2 | 14.5 | 0.00 | 0.00 | 0.00 | 64 | 1007.7 |
| 20260509173020 | 20 | 104 | 6.4 | 16.1 | 0.00 | 0.00 | 0.00 | 62 | 1007.6 |
| 20260509172509 | 21 | 98 | 6.4 | 16.1 | 0.00 | 0.00 | 0.00 | 62 | 1007.6 |
| 20260509172010 | 21 | 87 | 9.7 | 16.1 | 0.00 | 0.00 | 0.00 | 61 | 1007.6 |
| 20260509171512 | 21 | 63 | 8.0 | 16.1 | 0.00 | 0.00 | 0.00 | 62 | 1007.7 |
| 20260509171014 | 21 | 56 | 6.4 | 16.1 | 0.00 | 0.00 | 0.00 | 61 | 1007.8 |
| 20260509170510 | 21 | 105 | 8.0 | 16.1 | 0.00 | 0.00 | 0.00 | 58 | 1008.0 |
| 20260509170027 | 21 | 90 | 4.8 | 16.1 | 0.00 | 0.00 | 0.00 | 59 | 1008.1 |
| 20260509165505 | 21 | 89 | 3.2 | 14.5 | 0.00 | 0.00 | 0.00 | 59 | 1008.2 |
| 20260509165011 | 21 | 61 | 6.4 | 16.1 | 0.00 | 0.00 | 0.00 | 60 | 1008.2 |
| 20260509164536 | 21 | 65 | 4.8 | 16.1 | 0.00 | 0.00 | 0.00 | 60 | 1008.2 |
| 20260509164011 | 21 | 61 | 1.6 | 16.1 | 0.00 | 0.00 | 0.00 | 61 | 1008.2 |
| 20260509163508 | 21 | 110 | 3.2 | 16.1 | 0.00 | 0.00 | 0.00 | 59 | 1008.1 |
| 20260509163027 | 21 | 50 | 6.4 | 16.1 | 0.00 | 0.00 | 0.00 | 60 | 1008.1 |
| 20260509162507 | 21 | 108 | 3.2 | 14.5 | 0.00 | 0.00 | 0.00 | 59 | 1008.2 |
| 20260509162006 | 21 | 100 | 6.4 | 14.5 | 0.00 | 0.00 | 0.00 | 57 | 1008.2 |
| 20260509161519 | 22 | 77 | 8.0 | 16.1 | 0.00 | 0.00 | 0.00 | 58 | 1008.2 |
| 20260509161011 | 22 | 85 | 6.4 | 16.1 | 0.00 | 0.00 | 0.00 | 58 | 1008.2 |
| 20260509160506 | 22 | 79 | 6.4 | 16.1 | 0.00 | 0.00 | 0.00 | 58 | 1008.0 |
| 20260509160022 | 22 | 77 | 8.0 | 16.1 | 0.00 | 0.00 | 0.00 | 56 | 1008.0 |
| 20260509155510 | 22 | 71 | 6.4 | 16.1 | 0.00 | 0.00 | 0.00 | 55 | 1008.0 |
| 20260509155008 | 22 | 54 | 6.4 | 16.1 | 0.00 | 0.00 | 0.00 | 58 | 1008.0 |
| 20260509154518 | 22 | 91 | 6.4 | 19.3 | 0.00 | 0.00 | 0.00 | 58 | 1008.1 |
| 20260509154010 | 22 | 102 | 12.9 | 19.3 | 0.00 | 0.00 | 0.00 | 58 | 1008.1 |
| 20260509153512 | 22 | 88 | 11.3 | 19.3 | 0.00 | 0.00 | 0.00 | 58 | 1008.3 |
| 20260509153006 | 22 | 63 | 6.4 | 16.1 | 0.00 | 0.00 | 0.00 | 59 | 1008.3 |
| 20260509152502 | 22 | 69 | 4.8 | 16.1 | 0.00 | 0.00 | 0.00 | 57 | 1008.5 |
| 20260509152003 | 22 | 75 | 8.0 | 17.7 | 0.00 | 0.00 | 0.00 | 55 | 1008.5 |
| 20260509151504 | 22 | 64 | 3.2 | 17.7 | 0.00 | 0.00 | 0.00 | 56 | 1008.5 |
| 20260509151003 | 22 | 78 | 9.7 | 16.1 | 0.00 | 0.00 | 0.00 | 57 | 1008.5 |
| 20260509150503 | 22 | 108 | 6.4 | 16.1 | 0.00 | 0.00 | 0.00 | 56 | 1008.5 |
| 20260509150004 | 22 | 94 | 4.8 | 16.1 | 0.00 | 0.00 | 0.00 | 58 | 1008.6 |
| 20260509145504 | 22 | 80 | 6.4 | 16.1 | 0.00 | 0.00 | 0.00 | 57 | 1008.8 |
| 20260509145003 | 21 | 88 | 3.2 | 16.1 | 0.00 | 0.00 | 0.00 | 61 | 1008.7 |
| 20260509144505 | 21 | 114 | 6.4 | 16.1 | 0.00 | 0.00 | 0.00 | 61 | 1008.7 |
| 20260509144004 | 21 | 76 | 3.2 | 16.1 | 0.00 | 0.00 | 0.00 | 60 | 1008.7 |
| 20260509143503 | 21 | 120 | 6.4 | 16.1 | 0.00 | 0.00 | 0.00 | 57 | 1008.8 |
| 20260509143003 | 21 | 71 | 6.4 | 17.7 | 0.00 | 0.00 | 0.00 | 60 | 1008.9 |
| 20260509142504 | 21 | 63 | 8.0 | 17.7 | 0.00 | 0.00 | 0.00 | 58 | 1008.9 |
| 20260509142005 | 22 | 50 | 6.4 | 17.7 | 0.00 | 0.00 | 0.00 | 57 | 1009.0 |
| 20260509141503 | 22 | 57 | 8.0 | 17.7 | 0.00 | 0.00 | 0.00 | 56 | 1009.1 |
| 20260509141003 | 22 | 107 | 6.4 | 16.1 | 0.00 | 0.00 | 0.00 | 54 | 1009.2 |
| 20260509140503 | 22 | 121 | 4.8 | 20.9 | 0.00 | 0.00 | 0.00 | 61 | 1009.2 |
| 20260509140002 | 22 | 127 | 8.0 | 20.9 | 0.00 | 0.00 | 0.00 | 62 | 1009.3 |
| 20260509135506 | 21 | 83 | 6.4 | 17.7 | 0.00 | 0.00 | 0.00 | 64 | 1009.3 |
| 20260509135002 | 21 | 102 | 4.8 | 19.3 | 0.00 | 0.00 | 0.00 | 62 | 1009.3 |
| 20260509134506 | 21 | 77 | 6.4 | 19.3 | 0.00 | 0.00 | 0.00 | 63 | 1009.4 |
| 20260509134002 | 21 | 82 | 3.2 | 16.1 | 0.00 | 0.00 | 0.00 | 64 | 1009.4 |
| 20260509133503 | 21 | 81 | 4.8 | 16.1 | 0.00 | 0.00 | 0.00 | 63 | 1009.4 |
| 20260509133010 | 21 | 76 | 4.8 | 16.1 | 0.00 | 0.00 | 0.00 | 61 | 1009.5 |
| 20260509132505 | 21 | 71 | 8.0 | 17.7 | 0.00 | 0.00 | 0.00 | 61 | 1009.4 |
| 20260509132004 | 21 | 36 | 9.7 | 17.7 | 0.00 | 0.00 | 0.00 | 60 | 1009.4 |
| 20260509131507 | 21 | 63 | 8.0 | 17.7 | 0.00 | 0.00 | 0.00 | 60 | 1009.3 |
| 20260509131008 | 21 | 86 | 6.4 | 17.7 | 0.00 | 0.00 | 0.00 | 59 | 1009.3 |
| 20260509130505 | 21 | 65 | 8.0 | 17.7 | 0.00 | 0.00 | 0.00 | 60 | 1009.3 |
| 20260509130006 | 21 | 91 | 6.4 | 16.1 | 0.00 | 0.00 | 0.00 | 61 | 1009.3 |
| 20260509125502 | 21 | 53 | 8.0 | 14.5 | 0.00 | 0.00 | 0.00 | 59 | 1009.4 |
| 20260509125003 | 21 | 39 | 4.8 | 16.1 | 0.00 | 0.00 | 0.00 | 59 | 1009.5 |
| 20260509124505 | 21 | 57 | 6.4 | 16.1 | 0.00 | 0.00 | 0.00 | 58 | 1009.5 |
| 20260509124003 | 21 | 55 | 1.6 | 16.1 | 0.00 | 0.00 | 0.00 | 59 | 1009.5 |
| 20260509123503 | 21 | 90 | 6.4 | 16.1 | 0.00 | 0.00 | 0.00 | 58 | 1009.5 |
| 20260509123009 | 21 | 52 | 3.2 | 16.1 | 0.00 | 0.00 | 0.00 | 58 | 1009.5 |
| 20260509122503 | 21 | 165 | 0.0 | 17.7 | 0.00 | 0.00 | 0.00 | 61 | 1009.5 |
| 20260509122004 | 21 | 54 | 6.4 | 17.7 | 0.00 | 0.00 | 0.00 | 59 | 1009.6 |
| 20260509121513 | 21 | 61 | 4.8 | 16.1 | 0.00 | 0.00 | 0.00 | 60 | 1009.6 |
| 20260509121002 | 21 | 46 | 6.4 | 14.5 | 0.00 | 0.00 | 0.00 | 58 | 1009.6 |
| 20260509120505 | 21 | 65 | 4.8 | 14.5 | 0.00 | 0.00 | 0.00 | 60 | 1009.6 |
| 20260509120014 | 21 | 84 | 4.8 | 12.9 | 0.00 | 0.00 | 0.00 | 58 | 1009.7 |
| 20260509115502 | 21 | 86 | 4.8 | 12.9 | 0.00 | 0.00 | 0.00 | 58 | 1009.9 |
| 20260509115006 | 21 | 86 | 3.2 | 11.3 | 0.00 | 0.00 | 0.00 | 58 | 1010.0 |
| 20260509114514 | 21 | 96 | 4.8 | 11.3 | 0.00 | 0.00 | 0.00 | 58 | 1010.0 |
| 20260509114010 | 21 | 102 | 3.2 | 14.5 | 0.00 | 0.00 | 0.00 | 58 | 1010.1 |
| 20260509113503 | 21 | 67 | 3.2 | 14.5 | 0.00 | 0.00 | 0.00 | 59 | 1010.0 |
| 20260509113006 | 21 | 97 | 6.4 | 14.5 | 0.00 | 0.00 | 0.00 | 59 | 1010.1 |
| 20260509112503 | 21 | 86 | 3.2 | 12.9 | 0.00 | 0.00 | 0.00 | 57 | 1010.1 |
| 20260509112005 | 21 | 59 | 3.2 | 14.5 | 0.00 | 0.00 | 0.00 | 57 | 1010.2 |
| 20260509111507 | 21 | 77 | 6.4 | 14.5 | 0.00 | 0.00 | 0.00 | 57 | 1010.2 |
| 20260509111006 | 21 | 70 | 8.0 | 19.3 | 0.00 | 0.00 | 0.00 | 56 | 1010.2 |
| 20260509110503 | 21 | 92 | 6.4 | 19.3 | 0.00 | 0.00 | 0.00 | 53 | 1010.2 |
| 20260509110003 | 21 | 130 | 8.0 | 20.9 | 0.00 | 0.00 | 0.00 | 55 | 1010.1 |
| 20260509105505 | 21 | 64 | 11.3 | 20.9 | 0.00 | 0.00 | 0.00 | 54 | 1010.1 |
| 20260509105007 | 21 | 96 | 6.4 | 16.1 | 0.00 | 0.00 | 0.00 | 55 | 1010.0 |
| 20260509104518 | 21 | 93 | 6.4 | 12.9 | 0.00 | 0.00 | 0.00 | 56 | 1010.1 |
| 20260509104002 | 21 | 92 | 4.8 | 19.3 | 0.00 | 0.00 | 0.00 | 56 | 1010.2 |
| 20260509103506 | 21 | 105 | 9.7 | 19.3 | 0.00 | 0.00 | 0.00 | 54 | 1010.2 |
| 20260509103021 | 22 | 62 | 9.7 | 17.7 | 0.00 | 0.00 | 0.00 | 55 | 1010.1 |
| 20260509102503 | 22 | 58 | 9.7 | 17.7 | 0.00 | 0.00 | 0.00 | 52 | 1010.2 |
| 20260509102007 | 22 | 92 | 3.2 | 14.5 | 0.00 | 0.00 | 0.00 | 52 | 1010.4 |
| 20260509101508 | 22 | 88 | 6.4 | 12.9 | 0.00 | 0.00 | 0.00 | 52 | 1010.6 |
| 20260509101010 | 22 | 92 | 1.6 | 11.3 | 0.00 | 0.00 | 0.00 | 50 | 1010.6 |
| 20260509100502 | 22 | 125 | 3.2 | 12.9 | 0.00 | 0.00 | 0.00 | 48 | 1010.6 |
| 20260509100011 | 22 | 73 | 6.4 | 12.9 | 0.00 | 0.00 | 0.00 | 47 | 1010.6 |
| 20260509095506 | 22 | 76 | 4.8 | 14.5 | 0.00 | 0.00 | 0.00 | 45 | 1010.7 |
| 20260509095008 | 22 | 112 | 6.4 | 16.1 | 0.00 | 0.00 | 0.00 | 49 | 1010.7 |
| 20260509094511 | 22 | 77 | 6.4 | 16.1 | 0.00 | 0.00 | 0.00 | 49 | 1010.6 |
| 20260509094007 | 22 | 112 | 3.2 | 12.9 | 0.00 | 0.00 | 0.00 | 50 | 1010.6 |
| 20260509093509 | 22 | 57 | 1.6 | 9.7 | 0.00 | 0.00 | 0.00 | 48 | 1010.5 |
| 20260509093008 | 21 | 65 | 1.6 | 9.7 | 0.00 | 0.00 | 0.00 | 48 | 1010.5 |
| 20260509092505 | 21 | 76 | 4.8 | 9.7 | 0.00 | 0.00 | 0.00 | 49 | 1010.5 |
| 20260509092008 | 21 | 80 | 0.0 | 11.3 | 0.00 | 0.00 | 0.00 | 46 | 1010.6 |
| 20260509091529 | 21 | 76 | 3.2 | 11.3 | 0.00 | 0.00 | 0.00 | 49 | 1010.6 |
| 20260509091003 | 21 | 82 | 0.0 | 8.0 | 0.00 | 0.00 | 0.00 | 51 | 1010.6 |
| 20260509090503 | 21 | 85 | 3.2 | 6.4 | 0.00 | 0.00 | 0.00 | 53 | 1010.7 |
| 20260509090024 | 20 | 109 | 0.0 | 6.4 | 0.00 | 0.00 | 0.00 | 56 | 1010.6 |
| 20260509085502 | 20 | 92 | 0.0 | 6.4 | 0.00 | 0.00 | 0.00 | 55 | 1010.6 |
| 20260509085006 | 20 | 142 | 1.6 | 4.8 | 0.00 | 0.00 | 0.00 | 62 | 1010.6 |
| 20260509084514 | 20 | 141 | 0.0 | 3.2 | 0.00 | 0.00 | 0.00 | 61 | 1010.6 |
| 20260509084009 | 19 | 142 | 0.0 | 1.6 | 0.00 | 0.00 | 0.00 | 68 | 1010.6 |
| 20260509083510 | 19 | 142 | 0.0 | 1.6 | 0.00 | 0.00 | 0.00 | 69 | 1010.7 |
| 20260509083017 | 18 | 142 | 0.0 | 1.6 | 0.00 | 0.00 | 0.00 | 68 | 1010.7 |
| 20260509082509 | 18 | 142 | 0.0 | 1.6 | 0.00 | 0.00 | 0.00 | 68 | 1010.8 |
| 20260509082004 | 18 | 142 | 0.0 | 0.0 | 0.00 | 0.00 | 0.00 | 69 | 1010.9 |